Weather Roundup
Issued by NWS

Home | Current Version | Previous Version | Text Only | Print | Product List | Glossary On
Versions: 1 2 3 4 5 6 7 8 9 10 11 12 13 14 15 16 17 18 19 20 21 22 23 24 25 26 27 28 29 30 31 32 33 34 35 36 37 38 39 40 41 42 43 44 45 46 47 48 49 50
000
NZUS93 KARX 050659
HRRWXR

CURRENT HOURLY OBSERVATIONS ACROSS
MUCH OF THE UPPER MISSISSIPPI VALLEY
NATIONAL WEATHER SERVICE LA CROSSE WI
200 AM CDT SAT SEP 05 2015


...SOUTHEAST MINNESOTA...


CITY           SKY/WX    TMP DP  RH WIND       PRES   REMARKS
ROCHESTER      MOCLDY    73  70  90 S8        30.01S
ROCHESTER/MAYO FAIR      76  70  83 SE6       30.00S
WINONA         DRIZZLE   73  72  94 CALM      30.00S
AUSTIN         PTCLDY    75  72  88 CALM      29.99S
ALBERT LEA     PTCLDY    75  72  88 S6        29.98R
DODGE CENTER   MOCLDY    73  72  94 CALM      30.00S
PRESTON        CLOUDY    74  69  85 SE5       30.02S
OWATONNA       PTCLDY    75  72  88 SE8       29.98S
FARIBAULT      PTCLDY    77  72  83 SE9       29.96S
$$

...ELSEWHERE IN MINNESOTA...


CITY           SKY/WX    TMP DP  RH WIND       PRES   REMARKS
MINNEAPOLIS    MOCLDY    76  70  82 SE6       29.94S
INTNL FALLS    RAIN      67  65  93 VRB7      29.91F
DULUTH         MOCLDY    65  61  87 SE10      29.98F
RED WING       CLOUDY    77  72  83 E5        29.96R
REDWOOD FALLS  MOCLDY    76  71  85 SE13      29.88F
MANKATO        CLEAR     75  72  88 SE10      29.94S
WORTHINGTON    PTCLDY    73  66  78 S10       29.92S
FAIRMONT       CLEAR     73  66  78 S9        29.94S
$$

...SOUTHWEST WISCONSIN...


CITY           SKY/WX    TMP DP  RH WIND       PRES   REMARKS
LA CROSSE      LGT RAIN  76  72  87 E5        30.01R
PRAIRIE DU CHI LGT RAIN  73  71  92 E6        30.01S
BOSCOBEL       MOCLDY    74  72  93 CALM      30.02R FOG
LONE ROCK      PTCLDY    72  70  93 E7        30.03F
PLATTEVILLE    PTCLDY    73  72  95 E8        30.03F
FORT MC COY    PTCLDY    70  67  90 CALM      30.03S
VIROQUA        PTSUNNY   72  72 100 SE6       30.05R
WIS DELLS      CLEAR     69  65  89 SE6       30.05S FOG
$$

...ELSEWHERE IN WISCONSIN...


CITY           SKY/WX    TMP DP  RH WIND       PRES   REMARKS
MILWAUKEE      FOG       66  65  96 S5        30.06S VSB 1/2
MADISON        PTCLDY    68  65  90 S6        30.05S
GREEN BAY      FOG       61  60  97 W3        30.07S VSB 1/4
EAU CLAIRE     PTCLDY    72  67  84 SE6       30.00R
BLACK RVR FLS  FAIR      68  68 100 CALM      30.02S
MEDFORD        MOCLDY    66  65  99 SE6       30.07S FOG
WAUSAU         CLOUDY    67  65  93 SE6       30.06S
WIS RAPIDS     MOCLDY    68  64  87 SE3       30.07S
MARSHFIELD     PTCLDY    67  63  87 E6        30.06S FOG
RICE LAKE      CLEAR     70  66  87 SE7       30.03S
$$

...NORTHEAST IOWA...


CITY           SKY/WX    TMP DP  RH WIND       PRES   REMARKS
DECORAH        CLOUDY    75  70  83 S5        30.01R
MASON CITY     MOCLDY    75  72  90 SE8       30.00R
CHARLES CITY   MOCLDY    75  75 100 SE7       30.01S
OELWEIN        CLOUDY    73  72  94 SE6       30.02S
$$

...ELSEWHERE IN IOWA...


CITY           SKY/WX    TMP DP  RH WIND       PRES   REMARKS
DES MOINES     CLOUDY    77  69  76 S7        29.98R
IOWA CITY      CLOUDY    76  71  85 CALM      30.02S
FORT DODGE     MOCLDY    75  70  83 SE6       29.97F
$$

...NORTHERN ILLINOIS...


CITY           SKY/WX    TMP DP  RH WIND       PRES   REMARKS
CHICAGO-OHARE  PTCLDY    72  67  84 E3        30.04S
CHICAGO-MIDWAY PTCLDY    74  67  78 E5        30.04F
MOLINE         PTCLDY    76  68  76 CALM      30.01S
ROCKFORD       PTCLDY    70  66  87 SE3       30.06R
PEORIA         CLEAR     76  67  73 SW3       30.04S
$$

NOTE: "FAIR" INDICATES FEW OR NO CLOUDS BELOW 12,000 FEET WITH NO
SIGNIFICANT WEATHER AND/OR OBSTRUCTIONS TO VISIBILITY. WIND
SPEEDS ARE IN MILES-PER-HOUR.



USA.gov is the U.S. government's official web portal to all federal, state and local government web resources and services.